Time,TemperatureF,DewpointF,PressureIn,WindDirection,WindDirectionDegrees,WindSpeedMPH,WindSpeedGustMPH,Humidity,HourlyPrecipIn,Conditions,Clouds,dailyrainin,SoftwareType,DateUTC
2013-02-07 00:05:00,30.4,25.9,29.90,NW,313,0.0,0.0,83,0.00,,,-99.99,VWS V12.07,2013-02-07 07:05:00,
2013-02-07 00:11:00,30.3,25.8,29.90,NW,313,0.0,0.0,83,0.00,,,-99.99,VWS V12.07,2013-02-07 07:11:00,
2013-02-07 00:17:00,30.1,25.9,29.91,NW,313,0.0,0.0,84,0.00,,,-99.99,VWS V12.07,2013-02-07 07:17:00,
2013-02-07 00:23:00,30.0,25.8,29.91,NW,313,0.0,0.0,84,0.00,,,-99.99,VWS V12.07,2013-02-07 07:23:00,
2013-02-07 00:29:00,29.8,25.6,29.91,NW,313,0.0,0.0,84,0.00,,,-99.99,VWS V12.07,2013-02-07 07:29:00,
2013-02-07 00:35:00,29.7,25.8,29.91,NW,313,0.0,0.0,85,0.00,,,-99.99,VWS V12.07,2013-02-07 07:35:00,
2013-02-07 00:41:00,29.5,25.6,29.91,NW,313,0.0,0.0,85,0.00,,,-99.99,VWS V12.07,2013-02-07 07:41:00,
2013-02-07 00:47:00,29.3,25.1,29.91,NW,313,0.0,0.0,84,0.00,,,-99.99,VWS V12.07,2013-02-07 07:47:00,
2013-02-07 00:55:00,29.1,25.2,29.91,NW,313,0.0,0.0,85,0.00,,,-99.99,VWS V12.07,2013-02-07 07:55:00,
2013-02-07 01:01:00,29.0,25.1,29.91,NW,313,0.0,0.0,85,0.00,,,-99.99,VWS V12.07,2013-02-07 08:01:00,
2013-02-07 01:07:00,28.8,24.9,29.91,NW,313,0.0,0.0,85,0.00,,,-99.99,VWS V12.07,2013-02-07 08:07:00,
2013-02-07 01:13:00,28.7,24.8,29.91,NW,313,0.0,0.0,85,0.00,,,-99.99,VWS V12.07,2013-02-07 08:13:00,
2013-02-07 01:19:00,28.5,24.9,29.91,NW,313,0.0,0.0,86,0.00,,,-99.99,VWS V12.07,2013-02-07 08:19:00,
2013-02-07 01:25:00,28.4,24.8,29.91,NW,313,0.0,0.0,86,0.00,,,-99.99,VWS V12.07,2013-02-07 08:25:00,
2013-02-07 01:31:00,28.2,24.6,29.92,NW,313,0.0,0.0,86,0.00,,,-99.99,VWS V12.07,2013-02-07 08:31:00,
2013-02-07 01:37:00,28.1,24.5,29.92,NW,313,0.0,0.0,86,0.00,,,-99.99,VWS V12.07,2013-02-07 08:37:00,
2013-02-07 01:43:00,27.9,24.3,29.92,NW,313,0.0,0.0,86,0.00,,,-99.99,VWS V12.07,2013-02-07 08:43:00,
2013-02-07 01:49:00,27.9,24.3,29.92,NW,313,0.0,0.0,86,0.00,,,-99.99,VWS V12.07,2013-02-07 08:49:00,
2013-02-07 01:55:00,27.8,24.4,29.92,NW,313,0.0,0.0,87,0.00,,,-99.99,VWS V12.07,2013-02-07 08:55:00,
2013-02-07 02:01:00,27.8,24.4,29.93,NW,313,0.0,0.0,87,0.00,,,-99.99,VWS V12.07,2013-02-07 09:01:00,
2013-02-07 02:07:00,27.8,24.4,29.93,NW,313,0.0,0.0,87,0.00,,,-99.99,VWS V12.07,2013-02-07 09:07:00,
2013-02-07 02:13:00,27.6,24.0,29.92,NW,313,0.0,0.0,86,0.00,,,-99.99,VWS V12.07,2013-02-07 09:13:00,
2013-02-07 02:19:00,27.5,24.1,29.92,NW,313,0.0,0.0,87,0.00,,,-99.99,VWS V12.07,2013-02-07 09:19:00,
2013-02-07 02:25:00,27.5,24.1,29.92,NW,313,0.0,0.0,87,0.00,,,-99.99,VWS V12.07,2013-02-07 09:25:00,
2013-02-07 02:31:00,27.5,24.1,29.92,NW,313,0.0,0.0,87,0.00,,,-99.99,VWS V12.07,2013-02-07 09:31:00,
2013-02-07 02:37:00,27.3,24.0,29.92,NW,313,0.0,0.0,87,0.00,,,-99.99,VWS V12.07,2013-02-07 09:37:00,
2013-02-07 02:43:00,27.2,23.9,29.93,NW,313,0.0,0.0,87,0.00,,,-99.99,VWS V12.07,2013-02-07 09:43:00,
2013-02-07 02:49:00,27.0,23.6,29.93,NW,313,0.0,0.0,87,0.00,,,-99.99,VWS V12.07,2013-02-07 09:49:00,
2013-02-07 02:55:00,26.9,23.6,29.93,NW,313,0.0,0.0,87,0.00,,,-99.99,VWS V12.07,2013-02-07 09:55:00,
2013-02-07 03:01:00,26.9,23.6,29.93,NW,313,0.0,0.0,87,0.00,,,-99.99,VWS V12.07,2013-02-07 10:01:00,
2013-02-07 03:07:00,26.7,23.4,29.93,NW,313,0.0,0.0,87,0.00,,,-99.99,VWS V12.07,2013-02-07 10:07:00,
2013-02-07 03:13:00,26.7,23.4,29.93,NW,313,0.0,0.0,87,0.00,,,-99.99,VWS V12.07,2013-02-07 10:13:00,
2013-02-07 03:19:00,26.6,23.3,29.93,NW,313,0.0,0.0,87,0.00,,,-99.99,VWS V12.07,2013-02-07 10:19:00,
2013-02-07 03:25:00,26.6,23.3,29.93,NW,313,0.0,0.0,87,0.00,,,-99.99,VWS V12.07,2013-02-07 10:25:00,
2013-02-07 03:31:00,26.4,23.1,29.93,NW,313,0.0,0.0,87,0.00,,,-99.99,VWS V12.07,2013-02-07 10:31:00,
2013-02-07 03:37:00,26.4,23.1,29.93,NW,313,0.0,0.0,87,0.00,,,-99.99,VWS V12.07,2013-02-07 10:37:00,
2013-02-07 03:43:00,26.3,23.0,29.93,NW,313,0.0,0.0,87,0.00,,,-99.99,VWS V12.07,2013-02-07 10:43:00,
2013-02-07 03:49:00,26.1,22.8,29.93,NW,313,0.0,0.0,87,0.00,,,-99.99,VWS V12.07,2013-02-07 10:49:00,
2013-02-07 03:55:00,26.0,22.7,29.93,NW,313,0.0,0.0,87,0.00,,,-99.99,VWS V12.07,2013-02-07 10:55:00,
2013-02-07 04:01:00,26.0,22.9,29.93,NW,313,0.0,0.0,88,0.00,,,-99.99,VWS V12.07,2013-02-07 11:01:00,
2013-02-07 04:07:00,25.8,22.7,29.93,NW,313,0.0,0.0,88,0.00,,,-99.99,VWS V12.07,2013-02-07 11:07:00,
2013-02-07 04:13:00,25.8,22.7,29.94,NW,313,0.0,0.0,88,0.00,,,-99.99,VWS V12.07,2013-02-07 11:13:00,
2013-02-07 04:19:00,25.7,22.6,29.94,NW,313,0.0,0.0,88,0.00,,,-99.99,VWS V12.07,2013-02-07 11:19:00,
2013-02-07 04:25:00,25.6,22.5,29.94,NW,313,0.0,0.0,88,0.00,,,-99.99,VWS V12.07,2013-02-07 11:25:00,
2013-02-07 04:31:00,25.6,22.5,29.94,NW,313,0.0,0.0,88,0.00,,,-99.99,VWS V12.07,2013-02-07 11:31:00,
2013-02-07 04:37:00,25.6,22.5,29.94,NW,313,0.0,0.0,88,0.00,,,-99.99,VWS V12.07,2013-02-07 11:37:00,
2013-02-07 04:43:00,25.4,22.4,29.95,NW,313,0.0,0.0,88,0.00,,,-99.99,VWS V12.07,2013-02-07 11:43:00,
2013-02-07 04:49:00,25.3,22.0,29.95,NW,313,0.0,0.0,87,0.00,,,-99.99,VWS V12.07,2013-02-07 11:49:00,
2013-02-07 04:55:00,25.1,21.8,29.95,NW,313,0.0,0.0,87,0.00,,,-99.99,VWS V12.07,2013-02-07 11:55:00,
2013-02-07 05:01:00,25.0,22.0,29.95,NW,313,0.0,0.0,88,0.00,,,-99.99,VWS V12.07,2013-02-07 12:01:00,
2013-02-07 05:07:00,25.0,22.0,29.95,NW,313,0.0,0.0,88,0.00,,,-99.99,VWS V12.07,2013-02-07 12:07:00,
2013-02-07 05:13:00,24.8,21.8,29.97,NW,313,0.0,0.0,88,0.00,,,-99.99,VWS V12.07,2013-02-07 12:13:00,
2013-02-07 05:19:00,24.8,21.8,29.97,NW,313,0.0,0.0,88,0.00,,,-99.99,VWS V12.07,2013-02-07 12:19:00,
2013-02-07 05:25:00,24.7,21.7,29.97,NW,313,0.0,0.0,88,0.00,,,-99.99,VWS V12.07,2013-02-07 12:25:00,
2013-02-07 05:31:00,24.7,21.7,29.97,NW,313,0.0,0.0,88,0.00,,,-99.99,VWS V12.07,2013-02-07 12:31:00,
2013-02-07 05:37:00,24.5,21.5,29.97,NW,313,0.0,0.0,88,0.00,,,-99.99,VWS V12.07,2013-02-07 12:37:00,
2013-02-07 05:43:00,24.4,21.4,29.97,NW,313,0.0,0.0,88,0.00,,,-99.99,VWS V12.07,2013-02-07 12:43:00,
2013-02-07 05:49:00,24.4,21.4,29.97,NW,313,0.0,0.0,88,0.00,,,-99.99,VWS V12.07,2013-02-07 12:49:00,
2013-02-07 05:55:00,24.4,21.4,29.97,NW,313,0.0,0.0,88,0.00,,,-99.99,VWS V12.07,2013-02-07 12:55:00,
2013-02-07 06:01:00,24.2,21.2,29.97,NW,313,0.0,0.0,88,0.00,,,-99.99,VWS V12.07,2013-02-07 13:01:00,
2013-02-07 06:07:00,24.2,21.2,29.97,NW,313,0.0,0.0,88,0.00,,,-99.99,VWS V12.07,2013-02-07 13:07:00,
2013-02-07 06:13:00,24.1,21.1,30.00,NW,313,0.0,0.0,88,0.00,,,-99.99,VWS V12.07,2013-02-07 13:13:00,
2013-02-07 06:19:00,23.9,20.9,30.00,NW,313,0.0,0.0,88,0.00,,,-99.99,VWS V12.07,2013-02-07 13:19:00,
2013-02-07 06:25:00,23.9,20.9,30.00,NW,313,0.0,0.0,88,0.00,,,-99.99,VWS V12.07,2013-02-07 13:25:00,
2013-02-07 06:31:00,23.8,20.8,30.01,NW,313,0.0,0.0,88,0.00,,,-99.99,VWS V12.07,2013-02-07 13:31:00,
2013-02-07 06:37:00,23.8,20.8,30.01,NW,313,0.0,0.0,88,0.00,,,-99.99,VWS V12.07,2013-02-07 13:37:00,
2013-02-07 06:43:00,23.6,20.6,30.01,NW,313,0.0,0.0,88,0.00,,,-99.99,VWS V12.07,2013-02-07 13:43:00,
2013-02-07 06:49:00,23.6,20.6,30.01,NW,313,0.0,0.0,88,0.00,,,-99.99,VWS V12.07,2013-02-07 13:49:00,
2013-02-07 06:55:00,23.6,20.6,30.01,NW,313,0.0,0.0,88,0.00,,,-99.99,VWS V12.07,2013-02-07 13:55:00,
2013-02-07 07:01:00,23.6,20.6,30.01,NW,313,0.0,0.0,88,0.00,,,-99.99,VWS V12.07,2013-02-07 14:01:00,
2013-02-07 07:07:00,23.6,20.6,30.01,NW,313,0.0,0.0,88,0.00,,,-99.99,VWS V12.07,2013-02-07 14:07:00,
2013-02-07 07:13:00,23.5,20.5,30.02,NW,313,0.0,0.0,88,0.00,,,-99.99,VWS V12.07,2013-02-07 14:13:00,
2013-02-07 07:19:00,23.3,20.3,30.02,NW,313,0.0,0.0,88,0.00,,,-99.99,VWS V12.07,2013-02-07 14:19:00,
2013-02-07 07:25:00,23.2,20.2,30.02,NW,313,0.0,0.0,88,0.00,,,-99.99,VWS V12.07,2013-02-07 14:25:00,
2013-02-07 07:31:00,23.2,20.2,30.04,NW,313,0.0,0.0,88,0.00,,,-99.99,VWS V12.07,2013-02-07 14:31:00,
2013-02-07 07:37:00,23.2,20.2,30.04,NW,313,0.0,0.0,88,0.00,,,-99.99,VWS V12.07,2013-02-07 14:37:00,
2013-02-07 07:43:00,23.2,20.2,30.04,NW,313,0.0,0.0,88,0.00,,,-99.99,VWS V12.07,2013-02-07 14:43:00,
2013-02-07 07:49:00,23.2,20.2,30.04,NW,313,0.0,0.0,88,0.00,,,-99.99,VWS V12.07,2013-02-07 14:49:00,
2013-02-07 07:55:00,23.2,20.2,30.04,NW,313,0.0,0.0,88,0.00,,,-99.99,VWS V12.07,2013-02-07 14:55:00,
2013-02-07 08:01:00,23.5,20.7,30.05,NW,313,0.0,0.0,89,0.00,,,-99.99,VWS V12.07,2013-02-07 15:01:00,
2013-02-07 08:07:00,23.8,21.0,30.05,NW,313,0.0,0.0,89,0.00,,,-99.99,VWS V12.07,2013-02-07 15:07:00,
2013-02-07 08:13:00,24.1,21.3,30.07,NW,313,0.0,0.0,89,0.00,,,-99.99,VWS V12.07,2013-02-07 15:13:00,
2013-02-07 08:19:00,24.4,21.6,30.07,NW,313,0.0,0.0,89,0.00,,,-99.99,VWS V12.07,2013-02-07 15:19:00,
2013-02-07 08:25:00,25.1,22.3,30.07,NW,313,0.0,0.0,89,0.00,,,-99.99,VWS V12.07,2013-02-07 15:25:00,
2013-02-07 08:31:00,25.8,23.3,30.08,NW,313,0.0,0.0,90,0.00,,,-99.99,VWS V12.07,2013-02-07 15:31:00,
2013-02-07 08:37:00,26.7,24.4,30.08,NW,313,0.0,0.0,91,0.00,,,-99.99,VWS V12.07,2013-02-07 15:37:00,
2013-02-07 08:43:00,27.2,24.7,30.07,NW,313,0.0,0.0,90,0.00,,,-99.99,VWS V12.07,2013-02-07 15:43:00,
2013-02-07 08:49:00,27.8,25.2,30.07,NW,313,0.0,0.0,90,0.00,,,-99.99,VWS V12.07,2013-02-07 15:49:00,
2013-02-07 08:55:00,28.5,26.0,30.07,NW,313,0.0,0.0,90,0.00,,,-99.99,VWS V12.07,2013-02-07 15:55:00,
2013-02-07 09:01:00,29.5,26.9,30.06,NW,313,0.0,0.0,90,0.00,,,-99.99,VWS V12.07,2013-02-07 16:01:00,
2013-02-07 09:07:00,30.7,28.1,30.06,NW,313,0.0,1.0,90,0.00,,,-99.99,VWS V12.07,2013-02-07 16:07:00,
2013-02-07 09:13:00,31.5,28.9,30.07,NW,313,0.0,0.0,90,0.00,,,-99.99,VWS V12.07,2013-02-07 16:13:00,
2013-02-07 09:19:00,32.4,29.8,30.07,NW,313,0.0,0.0,90,0.00,,,-99.99,VWS V12.07,2013-02-07 16:19:00,
2013-02-07 09:25:00,33.5,30.9,30.07,NW,313,0.0,0.0,90,0.00,,,-99.99,VWS V12.07,2013-02-07 16:25:00,
2013-02-07 09:31:00,34.9,32.0,30.05,East,88,0.0,3.0,89,0.00,,,-99.99,VWS V12.07,2013-02-07 16:31:00,
2013-02-07 09:37:00,36.2,32.4,30.05,East,88,0.0,0.0,86,0.00,,,-99.99,VWS V12.07,2013-02-07 16:37:00,
2013-02-07 09:45:00,37.8,32.2,30.04,East,88,0.0,1.0,80,0.00,,,-99.99,VWS V12.07,2013-02-07 16:45:00,
2013-02-07 09:51:00,39.1,31.9,30.04,East,88,2.0,2.0,75,0.00,,,-99.99,VWS V12.07,2013-02-07 16:51:00,
2013-02-07 09:57:00,40.5,31.9,30.02,East,88,1.0,2.0,71,0.00,,,-99.99,VWS V12.07,2013-02-07 16:57:00,
2013-02-07 10:03:00,41.6,31.8,30.02,East,88,0.0,1.0,68,0.00,,,-99.99,VWS V12.07,2013-02-07 17:03:00,
2013-02-07 10:09:00,43.1,31.8,30.02,East,88,0.0,0.0,64,0.00,,,-99.99,VWS V12.07,2013-02-07 17:09:00,
2013-02-07 10:15:00,44.1,32.7,30.01,East,88,2.0,2.0,64,0.00,,,-99.99,VWS V12.07,2013-02-07 17:15:00,
2013-02-07 10:21:00,44.9,32.3,30.01,East,88,1.0,2.0,61,0.00,,,-99.99,VWS V12.07,2013-02-07 17:21:00,
2013-02-07 10:27:00,46.1,33.0,30.00,East,88,0.0,1.0,60,0.00,,,-99.99,VWS V12.07,2013-02-07 17:27:00,
2013-02-07 10:33:00,47.4,33.4,30.00,East,88,0.0,0.0,58,0.00,,,-99.99,VWS V12.07,2013-02-07 17:33:00,
2013-02-07 10:39:00,48.5,32.6,30.00,NE,44,0.0,2.0,54,0.00,,,-99.99,VWS V12.07,2013-02-07 17:39:00,
2013-02-07 10:45:00,49.4,32.5,29.98,NE,44,0.0,1.0,52,0.00,,,-99.99,VWS V12.07,2013-02-07 17:45:00,
2013-02-07 10:51:00,50.4,31.5,29.98,NE,44,0.0,1.0,48,0.00,,,-99.99,VWS V12.07,2013-02-07 17:51:00,
2013-02-07 10:57:00,51.3,31.2,29.97,NE,44,1.0,2.0,46,0.00,,,-99.99,VWS V12.07,2013-02-07 17:57:00,
2013-02-07 11:03:00,52.0,31.3,29.97,NE,44,0.0,0.0,45,0.00,,,-99.99,VWS V12.07,2013-02-07 18:03:00,
2013-02-07 11:09:00,52.8,30.9,29.97,NE,44,0.0,1.0,43,0.00,,,-99.99,VWS V12.07,2013-02-07 18:09:00,
2013-02-07 11:15:00,53.8,31.9,29.96,NE,44,0.0,0.0,43,0.00,,,-99.99,VWS V12.07,2013-02-07 18:15:00,
2013-02-07 11:21:00,55.0,31.1,29.96,SSE,148,1.0,2.0,40,0.00,,,-99.99,VWS V12.07,2013-02-07 18:21:00,
2013-02-07 11:27:00,55.4,29.6,29.95,SSE,150,1.0,2.0,37,0.00,,,-99.99,VWS V12.07,2013-02-07 18:27:00,
2013-02-07 11:33:00,56.0,26.6,29.95,South,175,2.0,2.0,32,0.00,,,-99.99,VWS V12.07,2013-02-07 18:33:00,
2013-02-07 11:39:00,56.3,27.6,29.95,South,175,1.0,2.0,33,0.00,,,-99.99,VWS V12.07,2013-02-07 18:39:00,
2013-02-07 11:45:00,56.6,27.9,29.93,South,175,0.0,2.0,33,0.00,,,-99.99,VWS V12.07,2013-02-07 18:45:00,
2013-02-07 11:51:00,57.6,25.6,29.93,South,174,2.0,5.0,29,0.00,,,-99.99,VWS V12.07,2013-02-07 18:51:00,
2013-02-07 11:57:00,58.1,24.3,29.92,South,174,2.0,3.0,27,0.00,,,-99.99,VWS V12.07,2013-02-07 18:57:00,
2013-02-07 12:03:00,58.4,24.6,29.92,SSE,158,2.0,3.0,27,0.00,,,-99.99,VWS V12.07,2013-02-07 19:03:00,
2013-02-07 12:09:00,58.1,25.2,29.92,SSW,200,0.0,5.0,28,0.00,,,-99.99,VWS V12.07,2013-02-07 19:09:00,
2013-02-07 12:15:00,58.0,25.1,29.92,South,181,2.0,5.0,28,0.00,,,-99.99,VWS V12.07,2013-02-07 19:15:00,
2013-02-07 12:21:00,58.3,24.5,29.92,SSW,200,2.0,6.0,27,0.00,,,-99.99,VWS V12.07,2013-02-07 19:21:00,
2013-02-07 12:27:00,57.8,24.1,29.92,SSW,193,0.0,6.0,27,0.00,,,-99.99,VWS V12.07,2013-02-07 19:27:00,
2013-02-07 12:33:00,58.0,24.2,29.92,SSE,164,1.0,2.0,27,0.00,,,-99.99,VWS V12.07,2013-02-07 19:33:00,
2013-02-07 12:39:00,58.3,24.5,29.92,SSE,164,1.0,2.0,27,0.00,,,-99.99,VWS V12.07,2013-02-07 19:39:00,
2013-02-07 12:45:00,58.7,25.7,29.90,SSW,205,2.0,3.0,28,0.00,,,-99.99,VWS V12.07,2013-02-07 19:45:00,
2013-02-07 12:51:00,59.0,25.1,29.90,SSW,196,1.0,7.0,27,0.00,,,-99.99,VWS V12.07,2013-02-07 19:51:00,
2013-02-07 12:57:00,58.9,25.9,29.89,South,184,3.0,6.0,28,0.00,,,-99.99,VWS V12.07,2013-02-07 19:57:00,
2013-02-07 13:03:00,58.7,24.8,29.89,ESE,114,0.0,0.0,27,0.00,,,-99.99,VWS V12.07,2013-02-07 20:03:00,
2013-02-07 13:09:00,58.9,25.0,29.89,NNE,28,1.0,5.0,27,0.00,,,-99.99,VWS V12.07,2013-02-07 20:09:00,
2013-02-07 13:15:00,58.9,25.0,29.89,SSE,152,0.0,4.0,27,0.00,,,-99.99,VWS V12.07,2013-02-07 20:15:00,
2013-02-07 13:21:00,59.0,25.1,29.89,SSW,192,4.0,4.0,27,0.00,,,-99.99,VWS V12.07,2013-02-07 20:21:00,
2013-02-07 13:27:00,59.0,25.1,29.88,SSW,200,1.0,7.0,27,0.00,,,-99.99,VWS V12.07,2013-02-07 20:27:00,
2013-02-07 13:33:00,59.2,26.1,29.88,SSW,200,0.0,0.0,28,0.00,,,-99.99,VWS V12.07,2013-02-07 20:33:00,
2013-02-07 13:39:00,59.3,26.2,29.88,South,179,4.0,6.0,28,0.00,,,-99.99,VWS V12.07,2013-02-07 20:39:00,
2013-02-07 13:45:00,58.9,25.0,29.88,ESE,107,3.0,3.0,27,0.00,,,-99.99,VWS V12.07,2013-02-07 20:45:00,
2013-02-07 13:51:00,58.7,25.7,29.88,SE,124,4.0,4.0,28,0.00,,,-99.99,VWS V12.07,2013-02-07 20:51:00,
2013-02-07 13:57:00,58.7,25.7,29.87,SE,140,0.0,4.0,28,0.00,,,-99.99,VWS V12.07,2013-02-07 20:57:00,
2013-02-07 14:03:00,58.7,25.7,29.87,SSE,164,2.0,2.0,28,0.00,,,-99.99,VWS V12.07,2013-02-07 21:03:00,
2013-02-07 14:09:00,59.0,25.1,29.87,SSW,196,1.0,5.0,27,0.00,,,-99.99,VWS V12.07,2013-02-07 21:09:00,
2013-02-07 14:15:00,58.9,25.9,29.86,East,82,0.0,6.0,28,0.00,,,-99.99,VWS V12.07,2013-02-07 21:15:00,
2013-02-07 14:21:00,59.2,25.3,29.86,WSW,237,8.0,10.0,27,0.00,,,-99.99,VWS V12.07,2013-02-07 21:21:00,
2013-02-07 14:27:00,59.5,25.5,29.86,SSW,195,5.0,6.0,27,0.00,,,-99.99,VWS V12.07,2013-02-07 21:27:00,
2013-02-07 14:33:00,59.6,26.5,29.86,South,179,2.0,3.0,28,0.00,,,-99.99,VWS V12.07,2013-02-07 21:33:00,
2013-02-07 14:39:00,59.5,26.4,29.86,ESE,109,1.0,4.0,28,0.00,,,-99.99,VWS V12.07,2013-02-07 21:39:00,
2013-02-07 14:45:00,59.6,25.6,29.86,South,181,0.0,3.0,27,0.00,,,-99.99,VWS V12.07,2013-02-07 21:45:00,
2013-02-07 14:51:00,59.6,25.6,29.86,South,191,7.0,7.0,27,0.00,,,-99.99,VWS V12.07,2013-02-07 21:51:00,
2013-02-07 14:57:00,59.2,26.1,29.85,SSW,195,0.0,9.0,28,0.00,,,-99.99,VWS V12.07,2013-02-07 21:57:00,
2013-02-07 15:03:00,59.3,27.1,29.85,East,100,3.0,3.0,29,0.00,,,-99.99,VWS V12.07,2013-02-07 22:03:00,
2013-02-07 15:09:00,59.3,25.4,29.85,ESE,113,4.0,6.0,27,0.00,,,-99.99,VWS V12.07,2013-02-07 22:09:00,
2013-02-07 15:15:00,58.9,26.7,29.85,East,99,0.0,2.0,29,0.00,,,-99.99,VWS V12.07,2013-02-07 22:15:00,
2013-02-07 15:21:00,59.2,25.3,29.85,SSW,195,2.0,10.0,27,0.00,,,-99.99,VWS V12.07,2013-02-07 22:21:00,
2013-02-07 15:27:00,59.0,25.1,29.85,South,181,0.0,7.0,27,0.00,,,-99.99,VWS V12.07,2013-02-07 22:27:00,
2013-02-07 15:33:00,58.9,25.9,29.85,SSW,199,4.0,4.0,28,0.00,,,-99.99,VWS V12.07,2013-02-07 22:33:00,
2013-02-07 15:39:00,58.3,26.2,29.85,SSW,193,3.0,6.0,29,0.00,,,-99.99,VWS V12.07,2013-02-07 22:39:00,
2013-02-07 15:45:00,58.0,26.8,29.85,SSW,198,4.0,6.0,30,0.00,,,-99.99,VWS V12.07,2013-02-07 22:45:00,
2013-02-07 15:51:00,58.1,27.6,29.85,SSW,208,10.0,12.0,31,0.00,,,-99.99,VWS V12.07,2013-02-07 22:51:00,
2013-02-07 15:57:00,57.8,27.4,29.85,South,188,1.0,8.0,31,0.00,,,-99.99,VWS V12.07,2013-02-07 22:57:00,
2013-02-07 16:03:00,58.1,27.6,29.85,South,184,5.0,6.0,31,0.00,,,-99.99,VWS V12.07,2013-02-07 23:03:00,
2013-02-07 16:09:00,58.0,27.6,29.85,SSW,196,2.0,4.0,31,0.00,,,-99.99,VWS V12.07,2013-02-07 23:09:00,
2013-02-07 16:15:00,57.6,28.0,29.86,SSW,195,9.0,10.0,32,0.00,,,-99.99,VWS V12.07,2013-02-07 23:15:00,
2013-02-07 16:21:00,57.3,29.9,29.86,South,186,1.0,6.0,35,0.00,,,-99.99,VWS V12.07,2013-02-07 23:21:00,
2013-02-07 16:27:00,57.5,29.4,29.85,SE,144,0.0,3.0,34,0.00,,,-99.99,VWS V12.07,2013-02-07 23:27:00,
2013-02-07 16:33:00,57.3,28.5,29.85,South,189,1.0,1.0,33,0.00,,,-99.99,VWS V12.07,2013-02-07 23:33:00,
2013-02-07 16:39:00,56.9,28.8,29.85,South,182,5.0,6.0,34,0.00,,,-99.99,VWS V12.07,2013-02-07 23:39:00,
2013-02-07 16:45:00,56.6,29.3,29.86,SSW,192,3.0,6.0,35,0.00,,,-99.99,VWS V12.07,2013-02-07 23:45:00,
2013-02-07 16:51:00,56.6,29.3,29.86,SSW,199,3.0,3.0,35,0.00,,,-99.99,VWS V12.07,2013-02-07 23:51:00,
2013-02-07 16:57:00,56.2,28.9,29.86,South,191,5.0,8.0,35,0.00,,,-99.99,VWS V12.07,2013-02-07 23:57:00,
2013-02-07 17:03:00,56.0,29.4,29.86,South,191,0.0,1.0,36,0.00,,,-99.99,VWS V12.07,2013-02-08 00:03:00,
2013-02-07 17:09:00,56.0,28.8,29.86,South,178,7.0,7.0,35,0.00,,,-99.99,VWS V12.07,2013-02-08 00:09:00,
2013-02-07 17:15:00,55.6,28.4,29.86,SSW,192,3.0,7.0,35,0.00,,,-99.99,VWS V12.07,2013-02-08 00:15:00,
2013-02-07 17:21:00,55.1,28.6,29.86,SSW,192,1.0,3.0,36,0.00,,,-99.99,VWS V12.07,2013-02-08 00:21:00,
2013-02-07 17:27:00,54.8,27.7,29.87,SSW,192,0.0,3.0,35,0.00,,,-99.99,VWS V12.07,2013-02-08 00:27:00,
2013-02-07 17:33:00,54.5,28.1,29.87,SSW,192,2.0,2.0,36,0.00,,,-99.99,VWS V12.07,2013-02-08 00:33:00,
2013-02-07 17:39:00,54.2,27.9,29.87,South,185,2.0,2.0,36,0.00,,,-99.99,VWS V12.07,2013-02-08 00:39:00,
2013-02-07 17:45:00,53.8,27.5,29.87,South,185,1.0,3.0,36,0.00,,,-99.99,VWS V12.07,2013-02-08 00:45:00,
2013-02-07 17:51:00,53.2,27.6,29.87,South,185,1.0,5.0,37,0.00,,,-99.99,VWS V12.07,2013-02-08 00:51:00,
2013-02-07 17:57:00,52.8,27.3,29.87,South,185,0.0,2.0,37,0.00,,,-99.99,VWS V12.07,2013-02-08 00:57:00,
2013-02-07 18:03:00,52.2,27.4,29.87,South,185,1.0,1.0,38,0.00,,,-99.99,VWS V12.07,2013-02-08 01:03:00,
2013-02-07 18:09:00,51.7,27.6,29.87,South,185,0.0,2.0,39,0.00,,,-99.99,VWS V12.07,2013-02-08 01:09:00,
2013-02-07 18:15:00,51.1,27.0,29.88,South,185,0.0,1.0,39,0.00,,,-99.99,VWS V12.07,2013-02-08 01:15:00,
2013-02-07 18:21:00,50.7,27.3,29.88,South,185,0.0,2.0,40,0.00,,,-99.99,VWS V12.07,2013-02-08 01:21:00,
2013-02-07 18:27:00,50.4,27.0,29.88,South,185,0.0,2.0,40,0.00,,,-99.99,VWS V12.07,2013-02-08 01:27:00,
2013-02-07 18:33:00,50.1,27.3,29.88,South,185,1.0,2.0,41,0.00,,,-99.99,VWS V12.07,2013-02-08 01:33:00,
2013-02-07 18:39:00,49.9,27.1,29.88,South,185,3.0,5.0,41,0.00,,,-99.99,VWS V12.07,2013-02-08 01:39:00,
2013-02-07 18:45:00,50.1,27.3,29.89,South,185,2.0,6.0,41,0.00,,,-99.99,VWS V12.07,2013-02-08 01:45:00,
2013-02-07 18:51:00,50.1,27.3,29.89,South,185,3.0,5.0,41,0.00,,,-99.99,VWS V12.07,2013-02-08 01:51:00,
2013-02-07 18:57:00,49.8,27.1,29.89,South,185,0.0,2.0,41,0.00,,,-99.99,VWS V12.07,2013-02-08 01:57:00,
2013-02-07 19:03:00,49.4,27.9,29.89,South,185,0.0,0.0,43,0.00,,,-99.99,VWS V12.07,2013-02-08 02:03:00,
2013-02-07 19:09:00,48.6,27.7,29.89,South,185,0.0,0.0,44,0.00,,,-99.99,VWS V12.07,2013-02-08 02:09:00,
2013-02-07 19:15:00,48.0,27.7,29.91,South,185,0.0,0.0,45,0.00,,,-99.99,VWS V12.07,2013-02-08 02:15:00,
2013-02-07 19:21:00,47.3,27.6,29.91,South,185,0.0,0.0,46,0.00,,,-99.99,VWS V12.07,2013-02-08 02:21:00,
2013-02-07 19:27:00,46.8,27.1,29.92,South,185,0.0,0.0,46,0.00,,,-99.99,VWS V12.07,2013-02-08 02:27:00,
2013-02-07 19:33:00,46.1,27.5,29.92,South,185,0.0,0.0,48,0.00,,,-99.99,VWS V12.07,2013-02-08 02:33:00,
2013-02-07 19:39:00,45.4,27.4,29.92,South,185,0.0,0.0,49,0.00,,,-99.99,VWS V12.07,2013-02-08 02:39:00,
2013-02-07 19:45:00,44.5,28.5,29.93,South,185,0.0,0.0,53,0.00,,,-99.99,VWS V12.07,2013-02-08 02:45:00,
2013-02-07 19:51:00,43.8,26.9,29.93,South,185,0.0,0.0,51,0.00,,,-99.99,VWS V12.07,2013-02-08 02:51:00,
2013-02-07 19:57:00,42.9,28.7,29.94,South,185,0.0,0.0,57,0.00,,,-99.99,VWS V12.07,2013-02-08 02:57:00,
2013-02-07 20:03:00,42.3,27.7,29.94,South,185,0.0,0.0,56,0.00,,,-99.99,VWS V12.07,2013-02-08 03:03:00,
2013-02-07 20:09:00,41.6,27.9,29.94,South,185,0.0,0.0,58,0.00,,,-99.99,VWS V12.07,2013-02-08 03:09:00,
2013-02-07 20:15:00,41.1,27.5,29.92,South,185,0.0,0.0,58,0.00,,,-99.99,VWS V12.07,2013-02-08 03:15:00,
2013-02-07 20:21:00,40.6,27.4,29.92,South,185,0.0,0.0,59,0.00,,,-99.99,VWS V12.07,2013-02-08 03:21:00,
2013-02-07 20:27:00,40.1,27.8,29.93,South,185,0.0,0.0,61,0.00,,,-99.99,VWS V12.07,2013-02-08 03:27:00,
2013-02-07 20:33:00,39.5,27.2,29.93,South,185,0.0,0.0,61,0.00,,,-99.99,VWS V12.07,2013-02-08 03:33:00,
2013-02-07 20:39:00,39.1,27.2,29.93,South,185,0.0,0.0,62,0.00,,,-99.99,VWS V12.07,2013-02-08 03:39:00,
2013-02-07 20:45:00,38.6,27.9,29.93,South,185,0.0,0.0,65,0.00,,,-99.99,VWS V12.07,2013-02-08 03:45:00,
2013-02-07 20:51:00,38.2,27.1,29.93,South,185,0.0,0.0,64,0.00,,,-99.99,VWS V12.07,2013-02-08 03:51:00,
2013-02-07 20:57:00,37.8,27.8,29.93,South,185,0.0,0.0,67,0.00,,,-99.99,VWS V12.07,2013-02-08 03:57:00,
2013-02-07 21:03:00,37.5,27.2,29.93,South,185,0.0,0.0,66,0.00,,,-99.99,VWS V12.07,2013-02-08 04:03:00,
2013-02-07 21:09:00,37.0,27.1,29.93,South,185,0.0,0.0,67,0.00,,,-99.99,VWS V12.07,2013-02-08 04:09:00,
2013-02-07 21:15:00,36.8,27.6,29.87,South,185,0.0,0.0,69,0.00,,,-99.99,VWS V12.07,2013-02-08 04:15:00,
2013-02-07 21:21:00,36.3,27.1,29.87,South,185,0.0,0.0,69,0.00,,,-99.99,VWS V12.07,2013-02-08 04:21:00,
2013-02-07 21:27:00,36.0,26.8,29.87,South,185,0.0,0.0,69,0.00,,,-99.99,VWS V12.07,2013-02-08 04:27:00,
2013-02-07 21:33:00,35.9,27.1,29.87,South,185,0.0,0.0,70,0.00,,,-99.99,VWS V12.07,2013-02-08 04:33:00,
2013-02-07 21:39:00,35.6,26.8,29.87,South,185,0.0,0.0,70,0.00,,,-99.99,VWS V12.07,2013-02-08 04:39:00,
2013-02-07 21:45:00,35.3,26.5,29.87,South,185,0.0,0.0,70,0.00,,,-99.99,VWS V12.07,2013-02-08 04:45:00,
2013-02-07 21:51:00,35.0,26.6,29.87,South,185,0.0,0.0,71,0.00,,,-99.99,VWS V12.07,2013-02-08 04:51:00,
2013-02-07 21:57:00,34.7,26.6,29.87,South,185,0.0,0.0,72,0.00,,,-99.99,VWS V12.07,2013-02-08 04:57:00,
2013-02-07 22:01:00,34.6,26.5,29.87,South,185,0.0,0.0,72,0.00,,,-99.99,VWS V12.07,2013-02-08 05:01:00,
2013-02-07 22:03:00,34.4,26.7,29.87,South,185,0.0,0.0,73,0.00,,,-99.99,VWS V12.07,2013-02-08 05:03:00,
2013-02-07 22:09:00,34.3,26.9,29.87,South,185,0.0,0.0,74,0.00,,,-99.99,VWS V12.07,2013-02-08 05:09:00,
2013-02-07 22:15:00,34.0,26.9,29.82,South,185,0.0,0.0,75,0.00,,,-99.99,VWS V12.07,2013-02-08 05:15:00,
2013-02-07 22:21:00,33.8,26.7,29.82,South,185,0.0,0.0,75,0.00,,,-99.99,VWS V12.07,2013-02-08 05:21:00,
2013-02-07 22:27:00,33.7,26.6,29.82,South,185,0.0,0.0,75,0.00,,,-99.99,VWS V12.07,2013-02-08 05:27:00,
2013-02-07 22:33:00,33.5,26.4,29.82,South,185,0.0,0.0,75,0.00,,,-99.99,VWS V12.07,2013-02-08 05:33:00,
2013-02-07 22:39:00,33.4,26.7,29.82,South,185,0.0,0.0,76,0.00,,,-99.99,VWS V12.07,2013-02-08 05:39:00,
2013-02-07 22:45:00,33.2,26.5,29.81,South,185,0.0,0.0,76,0.00,,,-99.99,VWS V12.07,2013-02-08 05:45:00,
2013-02-07 22:51:00,33.1,26.7,29.81,South,185,0.0,0.0,77,0.00,,,-99.99,VWS V12.07,2013-02-08 05:51:00,
2013-02-07 22:57:00,32.9,26.8,29.81,South,185,0.0,0.0,78,0.00,,,-99.99,VWS V12.07,2013-02-08 05:57:00,
2013-02-07 23:03:00,32.8,26.7,29.81,South,185,0.0,0.0,78,0.00,,,-99.99,VWS V12.07,2013-02-08 06:03:00,
2013-02-07 23:07:00,32.8,26.7,29.81,South,185,0.0,0.0,78,0.00,,,-99.99,VWS V12.07,2013-02-08 06:07:00,
2013-02-07 23:13:00,32.7,26.6,29.77,South,185,0.0,0.0,78,0.00,,,-99.99,VWS V12.07,2013-02-08 06:13:00,
2013-02-07 23:19:00,32.7,26.6,29.77,South,185,0.0,0.0,78,0.00,,,-99.99,VWS V12.07,2013-02-08 06:19:00,
2013-02-07 23:25:00,32.7,26.6,29.77,South,185,0.0,0.0,78,0.00,,,-99.99,VWS V12.07,2013-02-08 06:25:00,
2013-02-07 23:31:00,32.5,26.4,29.77,South,185,0.0,0.0,78,0.00,,,-99.99,VWS V12.07,2013-02-08 06:31:00,
2013-02-07 23:37:00,32.5,26.4,29.77,South,185,0.0,0.0,78,0.00,,,-99.99,VWS V12.07,2013-02-08 06:37:00,
2013-02-07 23:43:00,32.4,26.3,29.77,South,185,0.0,0.0,78,0.00,,,-99.99,VWS V12.07,2013-02-08 06:43:00,
2013-02-07 23:49:00,32.2,26.4,29.77,South,185,0.0,1.0,79,0.00,,,-99.99,VWS V12.07,2013-02-08 06:49:00,
2013-02-07 23:55:00,32.2,26.4,29.77,South,185,0.0,0.0,79,0.00,,,-99.99,VWS V12.07,2013-02-08 06:55:00,